EWG2HC EDDS-EDDB

Flight info

Callsign EWG2HC
Flight time 0h 50m
Altitude 37000
Route OKIBA4B OKIBA N851 RIMKI Z99 LOHRE N746 TIKNI T279 TAMEB T278 KLF KLF1L
Aircraft A320/M-SDE2E3FGIJ1RWXYZ/HB1

Departure

Time 2026-05-04 18:26
Airport Stuttgart Airport (EDDS)

Arrival

Time 2026-05-04 19:16
Airport Berlin Brandenburg Airport (EDDB)
Time Latitude Longitude Altitude Speed Heading
2026-05-04 18:03 48.68924 9.19581 1315 ft 0 kts 344°
2026-05-04 18:15 48.68918 9.19584 1314 ft 4 kts 344°
2026-05-04 18:15 48.68892 9.19595 1312 ft 4 kts 344°
2026-05-04 18:16 48.68871 9.19604 1311 ft 4 kts
2026-05-04 18:16 48.68850 9.19591 1310 ft 4 kts 55°
2026-05-04 18:16 48.68842 9.19568 1310 ft 1 kts 74°
2026-05-04 18:19 48.68869 9.19709 1307 ft 11 kts 74°
2026-05-04 18:19 48.68891 9.19831 1304 ft 13 kts 80°
2026-05-04 18:19 48.68822 9.19913 1298 ft 15 kts 134°
2026-05-04 18:20 48.68844 9.20061 1294 ft 15 kts 73°
2026-05-04 18:20 48.68879 9.20247 1290 ft 21 kts 74°
2026-05-04 18:20 48.68922 9.20475 1285 ft 25 kts 74°
2026-05-04 18:20 48.68974 9.20745 1277 ft 25 kts 74°
2026-05-04 18:21 48.69025 9.21017 1271 ft 29 kts 74°
2026-05-04 18:21 48.69080 9.21309 1268 ft 24 kts 74°
2026-05-04 18:21 48.69131 9.21573 1259 ft 28 kts 74°
2026-05-04 18:21 48.69182 9.21845 1253 ft 20 kts 74°
2026-05-04 18:22 48.69225 9.22068 1251 ft 24 kts 74°
2026-05-04 18:22 48.69275 9.22334 1240 ft 28 kts 74°
2026-05-04 18:22 48.69333 9.22640 1233 ft 32 kts 74°
2026-05-04 18:22 48.69384 9.22908 1228 ft 26 kts 74°
2026-05-04 18:23 48.69436 9.23183 1222 ft 29 kts 74°
2026-05-04 18:23 48.69492 9.23478 1216 ft 24 kts 74°
2026-05-04 18:23 48.69536 9.23712 1211 ft 25 kts 74°
2026-05-04 18:23 48.69576 9.23924 1207 ft 15 kts 74°
2026-05-04 18:24 48.69606 9.24083 1203 ft 16 kts 74°
2026-05-04 18:24 48.69584 9.24224 1197 ft 12 kts 119°
2026-05-04 18:24 48.69531 9.24303 1192 ft 10 kts 163°
2026-05-04 18:24 48.69455 9.24335 1190 ft 12 kts 164°
2026-05-04 18:25 48.69392 9.24327 1191 ft 8 kts 239°
2026-05-04 18:25 48.69377 9.24252 1192 ft 11 kts 254°
2026-05-04 18:25 48.69298 9.23833 1201 ft 77 kts 254°
2026-05-04 18:25 48.69092 9.22740 1222 ft 136 kts 254°
2026-05-04 18:26 48.68821 9.21187 1530 ft 158 kts 258°
2026-05-04 18:26 48.68536 9.19566 2290 ft 160 kts 257°
2026-05-04 18:26 48.68225 9.17953 2999 ft 160 kts 257°
2026-05-04 18:26 48.67904 9.16345 3667 ft 160 kts 256°
2026-05-04 18:27 48.67581 9.14741 4312 ft 159 kts 254°
2026-05-04 18:27 48.67249 9.13098 4741 ft 175 kts 253°
2026-05-04 18:27 48.66972 9.11188 5021 ft 199 kts 273°
2026-05-04 18:27 48.67509 9.09161 5296 ft 224 kts 304°
2026-05-04 18:28 48.68565 9.07266 5698 ft 248 kts 322°
2026-05-04 18:28 48.70139 9.06017 6244 ft 268 kts 343°
2026-05-04 18:28 48.71993 9.05201 6867 ft 283 kts 343°
2026-05-04 18:28 48.73921 9.04440 7693 ft 290 kts 352°
2026-05-04 18:29 48.75951 9.04576 8539 ft 297 kts 14°
2026-05-04 18:29 48.77844 9.05845 9405 ft 301 kts 37°
2026-05-04 18:29 48.79296 9.08066 10189 ft 304 kts 56°
2026-05-04 18:29 48.80573 9.10782 10516 ft 328 kts 57°
2026-05-04 18:30 48.83387 9.16774 11317 ft 363 kts 50°
2026-05-04 18:30 48.85352 9.19237 12020 ft 371 kts 30°
2026-05-04 18:30 48.87798 9.20575 12771 ft 376 kts 10°
2026-05-04 18:31 48.90392 9.21201 13578 ft 379 kts
2026-05-04 18:31 48.92976 9.21790 14288 ft 382 kts
2026-05-04 18:31 48.95626 9.22383 14946 ft 386 kts
2026-05-04 18:31 48.98302 9.22986 15594 ft 391 kts
2026-05-04 18:32 49.01009 9.23604 16237 ft 395 kts
2026-05-04 18:32 49.03743 9.24236 16873 ft 400 kts
2026-05-04 18:32 49.06506 9.24874 17502 ft 404 kts
2026-05-04 18:32 49.09304 9.25520 18113 ft 408 kts
2026-05-04 18:33 49.12128 9.26178 18658 ft 412 kts
2026-05-04 18:33 49.14971 9.26844 19188 ft 416 kts
2026-05-04 18:33 49.17852 9.27523 19749 ft 418 kts
2026-05-04 18:33 49.19760 9.27973 20106 ft 421 kts
2026-05-04 18:34 49.23630 9.28881 20790 ft 425 kts
2026-05-04 18:34 49.26564 9.29567 21291 ft 429 kts
2026-05-04 18:34 49.28528 9.30026 21618 ft 431 kts
2026-05-04 18:34 49.31516 9.30724 22111 ft 435 kts
2026-05-04 18:35 49.34526 9.31426 22597 ft 439 kts
2026-05-04 18:35 49.37559 9.32132 23085 ft 442 kts
2026-05-04 18:35 49.40614 9.32846 23559 ft 446 kts
2026-05-04 18:35 49.43695 9.33570 23954 ft 449 kts
2026-05-04 18:36 49.46801 9.34304 24353 ft 452 kts
2026-05-04 18:36 49.49914 9.35045 24754 ft 454 kts
2026-05-04 18:36 49.53051 9.35793 25151 ft 457 kts
2026-05-04 18:36 49.56203 9.36544 25542 ft 459 kts
2026-05-04 18:37 49.59372 9.37296 25931 ft 461 kts
2026-05-04 18:37 49.62509 9.38040 26342 ft 463 kts
2026-05-04 18:37 49.65701 9.38799 26731 ft 465 kts
2026-05-04 18:37 49.68913 9.39564 27106 ft 467 kts
2026-05-04 18:38 49.72138 9.40335 27471 ft 470 kts
2026-05-04 18:38 49.75373 9.41106 27813 ft 472 kts
2026-05-04 18:38 49.78633 9.41884 28165 ft 474 kts
2026-05-04 18:38 49.81905 9.42668 28501 ft 477 kts
2026-05-04 18:39 49.85194 9.43455 28812 ft 479 kts
2026-05-04 18:39 49.88502 9.44247 29121 ft 482 kts
2026-05-04 18:39 49.91824 9.45047 29433 ft 484 kts
2026-05-04 18:39 49.95161 9.45852 29737 ft 487 kts
2026-05-04 18:40 49.98513 9.46662 30063 ft 488 kts
2026-05-04 18:40 50.01876 9.47494 30426 ft 488 kts
2026-05-04 18:40 50.05130 9.48822 30778 ft 491 kts 17°
2026-05-04 18:40 50.08286 9.50897 30949 ft 493 kts 26°
2026-05-04 18:41 50.11225 9.53686 30984 ft 494 kts 35°
2026-05-04 18:41 50.16800 9.59983 31032 ft 496 kts 35°
2026-05-04 18:41 50.19598 9.63132 31411 ft 494 kts 35°
2026-05-04 18:42 50.22383 9.66260 31806 ft 494 kts 35°
2026-05-04 18:42 50.25140 9.69359 31940 ft 493 kts 34°
2026-05-04 18:42 50.27921 9.72500 31975 ft 492 kts 34°
2026-05-04 18:43 50.33461 9.78779 31976 ft 491 kts 34°
2026-05-04 18:43 50.38993 9.85071 32000 ft 492 kts 35°
2026-05-04 18:43 50.41636 9.88494 32354 ft 492 kts 43°
2026-05-04 18:44 50.44011 9.92348 32768 ft 491 kts 46°
2026-05-04 18:44 50.45562 9.94922 33053 ft 490 kts 46°
2026-05-04 18:44 50.48688 10.00118 33614 ft 487 kts 46°
2026-05-04 18:44 50.51013 10.03993 34019 ft 486 kts 46°
2026-05-04 18:45 50.53330 10.07857 34367 ft 485 kts 46°
2026-05-04 18:45 50.55643 10.11717 34680 ft 485 kts 46°
2026-05-04 18:45 50.57931 10.15537 34920 ft 485 kts 46°
2026-05-04 18:46 50.62556 10.23279 34977 ft 484 kts 46°
2026-05-04 18:46 50.66644 10.31690 34965 ft 484 kts 61°
2026-05-04 18:47 50.69833 10.41002 34980 ft 482 kts 62°
2026-05-04 18:47 50.73021 10.50257 34981 ft 482 kts 62°
2026-05-04 18:48 50.76241 10.59625 34989 ft 482 kts 62°
2026-05-04 18:48 50.79398 10.68903 34990 ft 482 kts 62°
2026-05-04 18:49 50.82565 10.78266 34994 ft 482 kts 62°
2026-05-04 18:49 50.85741 10.87662 34987 ft 483 kts 62°
2026-05-04 18:50 50.88903 10.97049 35000 ft 483 kts 62°
2026-05-04 18:50 50.92054 11.06440 35002 ft 482 kts 62°
2026-05-04 18:51 50.95207 11.15845 35001 ft 482 kts 62°
2026-05-04 18:51 50.98362 11.25179 34974 ft 482 kts 57°
2026-05-04 18:52 51.02642 11.33370 34985 ft 482 kts 47°
2026-05-04 18:52 51.07093 11.41366 34968 ft 483 kts 47°
2026-05-04 18:53 51.11550 11.49375 34962 ft 483 kts 47°
2026-05-04 18:53 51.15995 11.57413 34970 ft 483 kts 47°
2026-05-04 18:54 51.20427 11.65462 34604 ft 483 kts 47°
2026-05-04 18:54 51.22613 11.69432 34258 ft 482 kts 47°
2026-05-04 18:54 51.24831 11.73464 33889 ft 483 kts 47°
2026-05-04 18:54 51.27048 11.77508 33473 ft 484 kts 47°
2026-05-04 18:55 51.29264 11.81562 33060 ft 485 kts 47°
2026-05-04 18:55 51.33706 11.89722 32250 ft 487 kts 47°
2026-05-04 18:55 51.35932 11.93814 31859 ft 488 kts 47°
2026-05-04 18:56 51.38162 11.97914 31476 ft 489 kts 47°
2026-05-04 18:56 51.40396 12.02025 31100 ft 490 kts 47°
2026-05-04 18:56 51.42637 12.06160 30731 ft 491 kts 48°
2026-05-04 18:56 51.44886 12.10319 30342 ft 493 kts 47°
2026-05-04 18:57 51.47136 12.14476 29971 ft 494 kts 47°
2026-05-04 18:57 51.49358 12.18591 29544 ft 495 kts 48°
2026-05-04 18:57 51.51613 12.22778 29118 ft 495 kts 48°
2026-05-04 18:57 51.53865 12.26971 28702 ft 496 kts 48°
2026-05-04 18:58 51.56114 12.31169 28293 ft 495 kts 48°
2026-05-04 18:58 51.58351 12.35351 27890 ft 492 kts 48°
2026-05-04 18:58 51.60582 12.39526 27492 ft 489 kts 48°
2026-05-04 18:58 51.62797 12.43675 27113 ft 486 kts 48°
2026-05-04 18:59 51.64992 12.47794 26716 ft 483 kts 48°
2026-05-04 18:59 51.67174 12.51894 26223 ft 480 kts 48°
2026-05-04 18:59 51.69340 12.55968 25669 ft 476 kts 48°
2026-05-04 18:59 51.71456 12.59958 25075 ft 472 kts 49°
2026-05-04 19:00 51.73581 12.63973 24476 ft 467 kts 49°
2026-05-04 19:00 51.75684 12.67954 23889 ft 463 kts 49°
2026-05-04 19:00 51.77767 12.71904 23263 ft 459 kts 49°
2026-05-04 19:00 51.79822 12.75809 22584 ft 454 kts 49°
2026-05-04 19:01 51.81854 12.79674 21924 ft 449 kts 49°
2026-05-04 19:01 51.83862 12.83496 21289 ft 444 kts 49°
2026-05-04 19:01 51.85855 12.87287 20650 ft 440 kts 49°
2026-05-04 19:01 51.87829 12.91052 20029 ft 436 kts 49°
2026-05-04 19:02 51.89779 12.94776 19418 ft 432 kts 49°
2026-05-04 19:02 51.91709 12.98475 18830 ft 427 kts 49°
2026-05-04 19:02 51.93611 13.02123 18245 ft 421 kts 50°
2026-05-04 19:02 51.95493 13.05736 17576 ft 417 kts 50°
2026-05-04 19:03 51.97353 13.09314 16916 ft 413 kts 50°
2026-05-04 19:03 51.99194 13.12861 16270 ft 409 kts 50°
2026-05-04 19:03 52.01024 13.16390 15642 ft 407 kts 49°
2026-05-04 19:03 52.02844 13.19904 15033 ft 406 kts 49°
2026-05-04 19:04 52.04633 13.23361 14434 ft 404 kts 49°
2026-05-04 19:04 52.06439 13.26850 13838 ft 402 kts 49°
2026-05-04 19:04 52.08234 13.30327 13184 ft 400 kts 49°
2026-05-04 19:04 52.10014 13.33781 12526 ft 396 kts 50°
2026-05-04 19:05 52.11760 13.37178 11880 ft 385 kts 50°
2026-05-04 19:05 52.13471 13.40509 11245 ft 382 kts 49°
2026-05-04 19:05 52.15170 13.43817 10629 ft 379 kts 49°
2026-05-04 19:05 52.16853 13.47098 10034 ft 376 kts 49°
2026-05-04 19:06 52.18522 13.50360 9397 ft 373 kts 49°
2026-05-04 19:06 52.20157 13.53564 8750 ft 370 kts 50°
2026-05-04 19:06 52.21796 13.56777 8109 ft 366 kts 50°
2026-05-04 19:06 52.23386 13.59900 7507 ft 348 kts 50°
2026-05-04 19:07 52.24867 13.62812 7337 ft 319 kts 50°
2026-05-04 19:07 52.26226 13.65485 7171 ft 294 kts 50°
2026-05-04 19:07 52.27478 13.67953 7045 ft 271 kts 50°
2026-05-04 19:07 52.28641 13.70250 6772 ft 257 kts 50°
2026-05-04 19:08 52.29771 13.72480 6422 ft 253 kts 50°
2026-05-04 19:08 52.30890 13.74686 5913 ft 250 kts 50°
2026-05-04 19:08 52.31982 13.76874 5395 ft 247 kts 53°
2026-05-04 19:08 52.32913 13.79210 4895 ft 243 kts 65°
2026-05-04 19:09 52.33539 13.81718 4606 ft 230 kts 70°
2026-05-04 19:09 52.34070 13.84108 4332 ft 220 kts 70°
2026-05-04 19:09 52.34578 13.86442 3929 ft 217 kts 70°
2026-05-04 19:09 52.35071 13.88733 3513 ft 215 kts 70°
2026-05-04 19:10 52.35745 13.90877 3100 ft 212 kts 44°
2026-05-04 19:10 52.37008 13.91965 3010 ft 207 kts
2026-05-04 19:10 52.38448 13.92047 3013 ft 208 kts 357°
2026-05-04 19:10 52.39900 13.91927 3012 ft 209 kts 354°
2026-05-04 19:11 52.41251 13.91171 3017 ft 207 kts 321°
2026-05-04 19:11 52.42060 13.89276 3016 ft 207 kts 285°
2026-05-04 19:11 52.42027 13.86956 3015 ft 207 kts 253°
2026-05-04 19:11 52.41701 13.84658 3005 ft 207 kts 270°
2026-05-04 19:12 52.41908 13.82329 3016 ft 207 kts 283°
2026-05-04 19:12 52.41850 13.77865 3031 ft 192 kts 249°
2026-05-04 19:12 52.41374 13.75842 3013 ft 189 kts 250°
2026-05-04 19:13 52.40904 13.73835 2853 ft 188 kts 250°
2026-05-04 19:13 52.40435 13.71835 2630 ft 187 kts 250°
2026-05-04 19:13 52.39974 13.69867 2393 ft 187 kts 250°
2026-05-04 19:13 52.39501 13.67855 2138 ft 186 kts 250°
2026-05-04 19:14 52.39046 13.65916 1914 ft 179 kts 251°
2026-05-04 19:14 52.38614 13.64083 1680 ft 166 kts 251°
2026-05-04 19:14 52.38212 13.62373 1452 ft 155 kts 251°
2026-05-04 19:14 52.37840 13.60796 1260 ft 143 kts 251°
2026-05-04 19:15 52.37485 13.59289 1072 ft 141 kts 251°
2026-05-04 19:15 52.37136 13.57803 877 ft 139 kts 251°
2026-05-04 19:15 52.36788 13.56327 691 ft 139 kts 251°
2026-05-04 19:15 52.36441 13.54855 519 ft 138 kts 251°
2026-05-04 19:16 52.36098 13.53400 345 ft 139 kts 251°
2026-05-04 19:16 52.35749 13.51920 165 ft 139 kts 251°
2026-05-04 19:16 52.35438 13.50612 154 ft 101 kts 249°
2026-05-04 19:16 52.35255 13.49841 154 ft 32 kts 250°
2026-05-04 19:17 52.35229 13.49583 154 ft 23 kts 270°
2026-05-04 19:17 52.35239 13.49412 154 ft 14 kts 280°
2026-05-04 19:17 52.35250 13.49310 154 ft 14 kts 282°
2026-05-04 19:17 52.35321 13.49234 154 ft 15 kts 12°
2026-05-04 19:18 52.35380 13.49374 154 ft 17 kts 68°
2026-05-04 19:18 52.35426 13.49564 154 ft 19 kts 68°
2026-05-04 19:18 52.35494 13.49854 154 ft 19 kts 69°
2026-05-04 19:18 52.35524 13.49981 154 ft 18 kts 69°
2026-05-04 19:19 52.35572 13.50185 154 ft 21 kts 69°
2026-05-04 19:19 52.35615 13.50365 155 ft 16 kts 69°
2026-05-04 19:19 52.35652 13.50520 155 ft 10 kts 69°
2026-05-04 19:19 52.35671 13.50598 155 ft 0 kts 69°
2026-05-04 19:20 52.35672 13.50605 155 ft 4 kts 69°
2026-05-04 19:21 52.35691 13.50684 155 ft 8 kts 69°
2026-05-04 19:21 52.35713 13.50775 155 ft 10 kts 69°
2026-05-04 19:21 52.35765 13.50829 155 ft 10 kts 347°
2026-05-04 19:21 52.35836 13.50785 155 ft 12 kts 339°
2026-05-04 19:22 52.35914 13.50804 155 ft 13 kts 61°
2026-05-04 19:22 52.35949 13.50959 155 ft 15 kts 69°
2026-05-04 19:22 52.35978 13.51079 155 ft 11 kts 68°
2026-05-04 19:22 52.36003 13.51185 155 ft 10 kts 68°
2026-05-04 19:23 52.36026 13.51282 155 ft 8 kts 69°
2026-05-04 19:23 52.36048 13.51342 155 ft 4 kts 27°
2026-05-04 19:23 52.36071 13.51330 155 ft 3 kts 339°
2026-05-04 19:23 52.36089 13.51319 155 ft 2 kts 339°
2026-05-04 19:24 52.36101 13.51311 155 ft 2 kts 339°
2026-05-04 19:24 52.36116 13.51302 155 ft 2 kts 339°
2026-05-04 19:24 52.36121 13.51299 155 ft 0 kts 339°
2026-05-04 19:24 52.36124 13.51297 155 ft 0 kts 339°